星链-6301 (STARLINK-6301 )

导读

STARLINK-6301是美国太空探索技术公司(SpaceX)星链互联网卫星星座的成员,于北京时间2023年5月4日发射入轨。星链计划旨在构建全球卫星互联网,该卫星主要承担为全球范围,尤其是偏远地区提供高速低延迟宽带互联网接入服务的任务,助力实现全球网络覆盖。

基本信息
目录编号:
56392
目录名称:
STARLINK-6301
国际标识:
2023-061U
轨道中心:
EARTH
卫星名称:
星链-6301
卫星全名:
星链-6301 (STARLINK-6301 )
卫星状态:
在轨 (已飞行1219 天)
发射日期:
2023-05-04 UTC
国别 :
美国 (US)
星等 :
--
轨道信息
数据来源 国际轨道数据
星历时间: 2026-09-03T16:26:11+0800
23小时前
查看轨道信息
半长轴: 6861.205km
偏心率: 0.0001158
轨道倾角: 43.001°
近地点辐角 275.541°
升交点赤经 263.881°
平近点角 84.531°
近地点: 482.273km
远地点: 483.863km
周期: 94.267分钟
每日圈数: 15.275738
详细信息
固有亮度:
5
最大亮度:
2.5
卫星平台:
Starlink v1.5
覆盖范围:
全球
运营商:
太空探索技术公司
运营商所在国:
美国
制造商(研发单位):
太空探索技术公司
制造商所在国:
美国
使用方式:
暂无
卫星简介
星链(Starlink)计划是由太空探索技术公司(SpaceX)提出的一个巨型低轨卫星互联网星座项目,计划在2019年至2024年间在太空搭建由约1.2万颗卫星组成的“星链”网络,其中1584颗将部署在地球上空550千米处的近地轨道,并从2020年开始工作。该卫星仍在工作。
2D轨道图
3D轨道图
轨道高度分析图
轨道倾角分析图
轨道综合分析图
查看轨道综合分析图
交会数据列表
事件ID 空间交会对象 最接近时刻(TCA) 交会距离 交会风险概率(CRP) 交会风险指数(CRI) 操作
CDM_260903-231305-305205-639221
2026-09-03T
23:13:28+0000
2.044 km
极远距离
2.637779E-6 低风险 0.43